Tracking 28309 objects as of 1-Dec-2023
HD Live streaming from Space Station
objects crossing your sky now

STARLINK-5679

Track STARLINK-5679 now!
10-day predictions
STARLINK-5679 is classified as:


NORAD ID: 55467
Int'l Code: 2023-015U
Perigee: 565.4 km
Apogee: 567.1 km
Inclination: 43.0 °
Period: 95.8 minutes
Semi major axis: 6937 km
RCS: Unknown
Launch date: February 2, 2023
Source: United States (US)
Launch site: AIR FORCE EASTERN TEST RANGE (AFETR)
Your satellite tracking list
Your tracking list is empty




NASA's NSSDC Master Catalog

Two Line Element Set (TLE):
1 55467U 23015U   23334.51110810  .00003100  00000-0  24445-3 0  9996
2 55467  43.0008 156.9442 0001230 275.4711  84.5991 15.02538204 45878
Source of the keplerian elements: AFSPC